Location: Rio de Janeiro
(22.9068°S, 43.1729°W)
Time: 13:50:58
(UTC-03:00)

Hubble Space Telescope - Pass Details

Date: 29 November 2023
Orbit: 515 x 519 km, 28.5° (Epoch: 02 March)

Event Time Altitude Azimuth Distance (km) Brightness Sun altitude
Exits shadow 02:19:47 15° 90° (E) 1,493 3.5 -31.1°
Drops below altitude 10° 02:20:31 10° 95° (E) 1,760 3.9 -31.0°
Enters shadow 03:19:37 -67° 287° (WNW) 12,253 7.6 -20.7°
Maximum altitude 03:57:26 60° 195° (SSW) 604 1.1 -13.4°
